Location: Alma
(38.7220°N, 88.9090°W)
Time: 13:42:16
(UTC-06:00)

Vanguard 2 - Pass Details

Date: 12 November 2019
Orbit: 553 x 2938 km, 32.9° (Epoch: 07 December)

Event Time Altitude Azimuth Distance (km) Brightness Sun altitude
Rises 08:33:13 0° 212° (SSW) 4,764 11.7 18.7°
Reaches altitude 10° 08:38:21 10° 193° (SSW) 3,247 11.2 19.4°
Maximum altitude 08:42:34 16° 160° (SSE) 2,426 11.6 20.0°
Drops below altitude 10° 08:45:56 10° 124° (SE) 2,483 12.1 20.4°
Sets 08:49:03 0° 101° (E) 3,137 11.6 20.8°
